Weather History for Weatherford, OK

Change the Weather History Date:

Wednesday, January 23, 2013

  Actual Average (KJWG) Record (KJWG)
Temperature  
Mean Temperature 46 °F -  
Max Temperature 64 °F 51 °F 77 °F (1967)
Min Temperature 28 °F 26 °F -3 °F (1963)
Degree Days  
Heating Degree Days 19    
Moisture  
Dew Point 36 °F    
Average Humidity 81    
Maximum Humidity 100    
Minimum Humidity 45    
Precipitation  
Precipitation 0.00 in - - ()
Sea Level Pressure  
Sea Level Pressure 30.16 in    
Wind  
Wind Speed 2 mph (WSW)    
Max Wind Speed 12 mph    
Max Gust Speed -    
Visibility 10 miles    
Events      
Averages and records for this station are not official NWS values.
T = Trace of Precipitation, MM = Missing Value Source: NWS Daily Summary

Daily Weather History Graph

Daily Weather History Graph

Search for Another Location

Airport:

Trip Planner

Search our weather history database for the weather conditions in past years. The results will help you decide how hot, cold, wet, or windy it might be!

Date:

Astronomy

Jan. 23, 2013 Rise Set
Actual Time 7:40 AM CST 5:53 PM CST
Civil Twilight 7:12 AM CST 6:20 PM CST
Nautical Twilight 6:41 AM CST 6:51 PM CST
Astronomical Twilight 6:11 AM CST 7:21 PM CST
Moon 3:06 PM CST (1/23) 4:51 AM CST (1/23)
Length of Visible Light 11h 07m
Length of Day
10h 13m
Waxing Gibbous, 89% of the Moon is Illuminated
Jan 23
Waxing Gibbous
Jan 26
Full
Feb 3
Last Quarter
Feb 10
New
Feb 17
First Quarter

Hourly Weather History & Observations

Time (CST) Temp. Windchill Dew Point Humidity Pressure Visibility Wind Dir Wind Speed Gust Speed Precip Events Conditions
12:15 AM 33.8 °F - 30.2 °F 87% 30.20 in 10.0 mi Calm Calm - N/A   Clear
12:35 AM 33.8 °F - 32.0 °F 93% 30.19 in 10.0 mi Calm Calm - N/A   Clear
12:55 AM 32.0 °F - 30.2 °F 93% 30.19 in 10.0 mi Calm Calm - N/A   Clear
1:15 AM 30.2 °F 26.7 °F 28.4 °F 93% 30.19 in 10.0 mi NNW 3.5 mph - N/A   Clear
1:35 AM 32.0 °F 28.7 °F 30.2 °F 93% 30.19 in 10.0 mi NNW 3.5 mph - N/A   Clear
1:55 AM 30.2 °F 23.4 °F 30.2 °F 100% 30.19 in 10.0 mi NNW 6.9 mph - N/A   Clear
2:15 AM 32.0 °F 27.5 °F 30.2 °F 93% 30.20 in 10.0 mi NW 4.6 mph - N/A   Clear
2:35 AM 32.0 °F - 32.0 °F 100% 30.19 in 10.0 mi Calm Calm - N/A   Clear
2:55 AM 32.0 °F - 30.2 °F 93% 30.18 in 10.0 mi Calm Calm - N/A   Clear
3:35 AM 30.2 °F - 28.4 °F 93% 30.19 in 10.0 mi Calm Calm - N/A   Clear
3:55 AM 32.0 °F 28.7 °F 30.2 °F 93% 30.18 in 10.0 mi South 3.5 mph - N/A   Clear
4:15 AM 32.0 °F - 28.4 °F 87% 30.18 in 10.0 mi Calm Calm - N/A   Clear
4:35 AM 30.2 °F - 30.2 °F 100% 30.17 in 10.0 mi Calm Calm - N/A   Clear
4:55 AM 30.2 °F - 28.4 °F 93% 30.17 in 10.0 mi Calm Calm - N/A   Clear
5:35 AM 28.4 °F 23.3 °F 26.6 °F 93% 30.18 in 10.0 mi North 4.6 mph - N/A   Clear
5:55 AM 28.4 °F - 28.4 °F 100% 30.18 in 10.0 mi Calm Calm - N/A   Clear
6:15 AM 28.4 °F 24.6 °F 28.4 °F 100% 30.18 in 10.0 mi NNW 3.5 mph - N/A   Clear
6:35 AM 30.2 °F - 28.4 °F 93% 30.18 in 10.0 mi Calm Calm - N/A   Clear
6:55 AM 28.4 °F - 26.6 °F 93% 30.18 in 10.0 mi Calm Calm - N/A   Clear
7:15 AM 28.4 °F - 28.4 °F 100% 30.18 in 10.0 mi Calm Calm - N/A   Clear
7:35 AM 28.4 °F - 26.6 °F 93% 30.18 in 10.0 mi Calm Calm - N/A   Clear
7:55 AM 28.4 °F - 26.6 °F 93% 30.18 in 10.0 mi Calm Calm - N/A   Clear
8:15 AM 28.4 °F - 26.6 °F 93% 30.19 in 10.0 mi Calm Calm - N/A   Clear
8:35 AM 28.4 °F - 26.6 °F 93% 30.19 in 10.0 mi Calm Calm - N/A   Clear
8:55 AM 28.4 °F - 28.4 °F 100% 30.19 in 10.0 mi Calm Calm - N/A   Clear
9:15 AM 32.0 °F 28.7 °F 30.2 °F 93% 30.20 in 10.0 mi NW 3.5 mph - N/A   Clear
9:35 AM 32.0 °F 28.7 °F 30.2 °F 93% 30.21 in 10.0 mi NNW 3.5 mph - N/A   Clear
9:55 AM 33.8 °F 29.6 °F 32.0 °F 93% 30.21 in 10.0 mi NNW 4.6 mph - N/A   Clear
10:15 AM 35.6 °F - 32.0 °F 87% 30.21 in 10.0 mi Calm Calm - N/A   Clear
10:35 AM 37.4 °F - 33.8 °F 87% 30.22 in 10.0 mi Calm Calm - N/A   Clear
10:55 AM 41.0 °F - 35.6 °F 81% 30.22 in 10.0 mi Calm Calm - N/A   Clear
11:15 AM 44.6 °F - 35.6 °F 71% 30.21 in 10.0 mi Calm Calm - N/A   Clear
11:35 AM 46.4 °F - 37.4 °F 71% 30.21 in 10.0 mi Calm Calm - N/A   Clear
11:55 AM 50.0 °F - 39.2 °F 66% 30.21 in 10.0 mi Calm Calm - N/A   Clear
12:35 PM 55.4 °F - 42.8 °F 63% 30.18 in 10.0 mi Calm Calm - N/A   Clear
1:15 PM 59.0 °F - 44.6 °F 59% 30.16 in 10.0 mi South 4.6 mph - N/A   Clear
1:35 PM 60.8 °F - 42.8 °F 52% 30.15 in 10.0 mi SSW 4.6 mph - N/A   Clear
1:55 PM 62.6 °F - 42.8 °F 48% 30.14 in 10.0 mi SW 5.8 mph - N/A   Clear
2:15 PM 62.6 °F - 42.8 °F 48% 30.13 in 10.0 mi SSW 6.9 mph - N/A   Clear
2:35 PM 62.6 °F - 42.8 °F 48% 30.12 in 10.0 mi SSW 9.2 mph - N/A   Clear
2:55 PM 62.6 °F - 42.8 °F 48% 30.12 in 10.0 mi SSW 9.2 mph - N/A   Clear
3:55 PM 64.4 °F - 42.8 °F 45% 30.10 in 10.0 mi SSW 6.9 mph - N/A   Clear
4:35 PM 64.4 °F - 42.8 °F 45% 30.09 in 10.0 mi South 11.5 mph - N/A   Clear
5:35 PM 64.4 °F - 44.6 °F 49% 30.09 in 10.0 mi South 4.6 mph - N/A   Clear
5:55 PM 60.8 °F - 44.6 °F 55% 30.10 in 10.0 mi SE 3.5 mph - N/A   Clear
6:15 PM 59.0 °F - 44.6 °F 59% 30.11 in 10.0 mi Calm Calm - N/A   Clear
6:35 PM 59.0 °F - 46.4 °F 63% 30.11 in 10.0 mi South 4.6 mph - N/A   Clear
6:55 PM 59.0 °F - 44.6 °F 59% 30.12 in 10.0 mi SSW 5.8 mph - N/A   Clear
7:15 PM 55.4 °F - 44.6 °F 67% 30.13 in 10.0 mi SSW 5.8 mph - N/A   Clear
7:35 PM 53.6 °F - 44.6 °F 72% 30.13 in 10.0 mi SW 6.9 mph - N/A   Clear
7:55 PM 53.6 °F - 44.6 °F 72% 30.14 in 10.0 mi SW 4.6 mph - N/A   Clear
8:15 PM 53.6 °F - 44.6 °F 72% 30.13 in 10.0 mi SW 6.9 mph - N/A   Clear
8:35 PM 53.6 °F - 42.8 °F 67% 30.13 in 10.0 mi Calm Calm - N/A   Clear
8:55 PM 46.4 °F 45.2 °F 41.0 °F 81% 30.12 in 10.0 mi SSE 3.5 mph - N/A   Clear
9:15 PM 46.4 °F - 41.0 °F 81% 30.13 in 10.0 mi Calm Calm - N/A   Clear
9:35 PM 46.4 °F - 42.8 °F 87% 30.14 in 10.0 mi Calm Calm - N/A   Clear
9:55 PM 44.6 °F - 41.0 °F 87% 30.14 in 10.0 mi Calm Calm - N/A   Clear
10:15 PM 42.8 °F 41.1 °F 41.0 °F 93% 30.14 in 10.0 mi North 3.5 mph - N/A   Clear
10:35 PM 42.8 °F - 41.0 °F 93% 30.14 in 10.0 mi Calm Calm - N/A   Clear
10:55 PM 42.8 °F - 41.0 °F 93% 30.15 in 10.0 mi Calm Calm - N/A   Clear
11:15 PM 42.8 °F 40.1 °F 41.0 °F 93% 30.16 in 10.0 mi NNW 4.6 mph - N/A   Clear
11:35 PM 41.0 °F 38.0 °F 41.0 °F 100% 30.18 in 7.0 mi North 4.6 mph - N/A   Clear
11:55 PM 44.6 °F 43.1 °F 41.0 °F 87% 30.18 in 10.0 mi NNE 3.5 mph - N/A   Clear